This is the latest recevied weather packets stored in our database for station/object YD2UMH-10. If no packets are shown the sender has not sent any weather packets the latest 10 day(s).
| Time | Temp. | Humidity | Pressure | Rain* | Wind** | Luminosity | Snow |
|---|---|---|---|---|---|---|---|
| 1778055243 | 38.89° C | 80% | 987 hPa | - | - | 0 W/m² | - |
| 1778054921 | 38.33° C | 72% | 987 hPa | - | - | 0 W/m² | - |
| 1778054599 | 40° C | 66% | 987 hPa | - | - | 0 W/m² | - |
| 1778054276 | 38.89° C | 70% | 987 hPa | - | - | 0 W/m² | - |
| 1778053955 | 37.22° C | 73% | 987 hPa | - | - | 0 W/m² | - |
| 1778053633 | 39.44° C | 67% | 987 hPa | - | - | 0 W/m² | - |
| 1778053311 | 40.56° C | 65% | 987 hPa | - | - | 0 W/m² | - |
| 1778052989 | 38.33° C | 71% | 987 hPa | - | - | 0 W/m² | - |
| 1778052667 | 37.78° C | 74% | 987 hPa | - | - | 0 W/m² | - |
| 1778052345 | 37.22° C | 77% | 987 hPa | - | - | 0 W/m² | - |
| 1778052023 | 36.67° C | 74% | 987 hPa | - | - | 0 W/m² | - |
| 1778051701 | 41.11° C | 68% | 987 hPa | - | - | 0 W/m² | - |
| 1778051378 | 37.78° C | 75% | 987 hPa | - | - | 0 W/m² | - |
| 1778051056 | 38.33° C | 72% | 987 hPa | - | - | 0 W/m² | - |
| 1778050734 | 39.44° C | 74% | 987 hPa | - | - | 0 W/m² | - |
| 1778050412 | 41.11° C | 68% | 987 hPa | - | - | 0 W/m² | - |
| 1778050091 | 39.44° C | 77% | 987 hPa | - | - | 0 W/m² | - |
| 1778049769 | 40° C | 72% | 988 hPa | - | - | 0 W/m² | - |
| 1778049446 | 37.22° C | 82% | 988 hPa | - | - | 0 W/m² | - |
| 1778049125 | 36.11° C | 87% | 988 hPa | - | - | 0 W/m² | - |
| 1778048803 | 40.56° C | 70% | 988 hPa | - | - | 0 W/m² | - |
| 1778048480 | 40° C | 73% | 988 hPa | - | - | 0 W/m² | - |
| 1778048159 | 38.89° C | 81% | 988 hPa | - | - | 0 W/m² | - |
| 1778047836 | 38.33° C | 83% | 988 hPa | - | - | 0 W/m² | - |
| 1778047514 | 38.89° C | 84% | 988 hPa | - | - | 0 W/m² | - |
* Rain since midnight (hover to see other rain measurements)
** Current wind speed in m/s (hover to see current wind gust speed)